Arlington, TX

11:18 AM CDT on July 23, 2016 (GMT -0500)
Grand Prairie Municipal

Weather History for KGPM - May, 2013

Change the Weather History Date:

Tuesday, May 28, 2013

  Actual Average (KDFW) Record (KDFW)
Temperature  
Mean Temperature 78 °F 77 °F  
Max Temperature 84 °F 87 °F 107 °F (1927)
Min Temperature 71 °F 68 °F 51 °F (1907)
Degree Days  
Heating Degree Days 0 0  
Month to date heating degree days 6  
Since 1 July heating degree days 2282  
Cooling Degree Days 12 12  
Month to date cooling degree days 246  
Year to date cooling degree days 384  
Growing Degree Days 28 (Base 50)    
Moisture  
Dew Point 65 °F    
Average Humidity 68    
Maximum Humidity 78    
Minimum Humidity 51    
Precipitation  
Precipitation 0.00 in 0.16 in 3.60 in (1936)
Month to date precipitation 4.43  
Year to date precipitation 15.78  
Sea Level Pressure  
Sea Level Pressure 29.85 in    
Wind  
Wind Speed 12 mph (SSE)    
Max Wind Speed 21 mph    
Max Gust Speed 30 mph    
Visibility 10 miles    
Events      
T = Trace of Precipitation, MM = Missing Value Source: NWS Daily Summary

Daily Weather History Graph

Daily Weather History Graph

Search for Another Location

Airport or City:

Trip Planner

Search our weather history database for the weather conditions in past years. The results will help you decide how hot, cold, wet, or windy it might be!

Date:

Astronomy

May. 28, 2013 Rise Set
Actual Time 6:22 AM CDT 8:28 PM CDT
Civil Twilight 5:54 AM CDT 8:56 PM CDT
Nautical Twilight 5:20 AM CDT 9:30 PM CDT
Astronomical Twilight 4:43 AM CDT 10:07 PM CDT
Moon No Moon Rise 10:07 AM CDT (5/28)
Length of Visible Light 15h 02m
Length of Day
14h 06m
Waning Gibbous, 82% of the Moon is Illuminated
May 28
Waning Gibbous
May 31
Last Quarter
Jun 8
New
Jun 16
First Quarter
Jun 23
Full

Hourly Weather History & Observations

Time (CDT) Temp. Heat Index Dew Point Humidity Pressure Visibility Wind Dir Wind Speed Gust Speed Precip Events Conditions
12:15 AM 77.0 °F - 64.4 °F 65% 29.88 in 10.0 mi South 9.2 mph 17.3 mph N/A   Clear
12:35 AM 77.0 °F - 64.4 °F 65% 29.88 in 10.0 mi South 12.7 mph 17.3 mph N/A   Clear
12:55 AM 77.0 °F - 64.4 °F 65% 29.88 in 10.0 mi South 11.5 mph 17.3 mph N/A   Clear
1:15 AM 77.0 °F - 64.4 °F 65% 29.87 in 10.0 mi South 12.7 mph - N/A   Clear
1:35 AM 77.0 °F - 64.4 °F 65% 29.87 in 10.0 mi South 10.4 mph 17.3 mph N/A   Clear
1:55 AM 75.2 °F - 64.4 °F 69% 29.86 in 10.0 mi South 11.5 mph 20.7 mph N/A   Clear
2:15 AM 75.2 °F - 64.4 °F 69% 29.85 in 10.0 mi South 11.5 mph 18.4 mph N/A   Clear
2:35 AM 73.4 °F - 64.4 °F 73% 29.84 in 10.0 mi South 11.5 mph 18.4 mph N/A   Clear
2:55 AM 73.4 °F - 64.4 °F 73% 29.84 in 10.0 mi South 9.2 mph 26.5 mph N/A   Clear
3:15 AM 73.4 °F - 64.4 °F 73% 29.84 in 10.0 mi South 10.4 mph 18.4 mph N/A   Clear
3:35 AM 71.6 °F - 64.4 °F 78% 29.84 in 10.0 mi South 16.1 mph 24.2 mph N/A   Clear
3:55 AM 71.6 °F - 64.4 °F 78% 29.83 in 10.0 mi South 12.7 mph 25.3 mph N/A   Clear
4:15 AM 71.6 °F - 64.4 °F 78% 29.84 in 10.0 mi South 12.7 mph 25.3 mph N/A   Scattered Clouds
4:35 AM 71.6 °F - 64.4 °F 78% 29.84 in 10.0 mi South 10.4 mph 20.7 mph N/A   Mostly Cloudy
4:55 AM 71.6 °F - 64.4 °F 78% 29.85 in 10.0 mi South 9.2 mph 16.1 mph N/A   Scattered Clouds
5:15 AM 71.6 °F - 64.4 °F 78% 29.85 in 10.0 mi South 15.0 mph 20.7 mph N/A   Scattered Clouds
5:35 AM 71.6 °F - 64.4 °F 78% 29.85 in 10.0 mi South 13.8 mph 19.6 mph N/A   Scattered Clouds
5:55 AM 71.6 °F - 64.4 °F 78% 29.86 in 10.0 mi South 15.0 mph 21.9 mph N/A   Scattered Clouds
6:15 AM 71.6 °F - 64.4 °F 78% 29.86 in 10.0 mi South 13.8 mph 24.2 mph N/A   Scattered Clouds
6:35 AM 71.6 °F - 64.4 °F 78% 29.86 in 10.0 mi South 17.3 mph 24.2 mph N/A   Scattered Clouds
6:50 AM 73.4 °F - 66.2 °F 78% 29.87 in 10.0 mi South 9.2 mph 23.0 mph N/A   Scattered Clouds
6:55 AM 71.6 °F - 64.4 °F 78% 29.88 in 10.0 mi South 13.8 mph - N/A   Scattered Clouds
7:50 AM 73.4 °F - 66.2 °F 78% 29.89 in 10.0 mi South 9.2 mph 23.0 mph N/A   Scattered Clouds
8:50 AM 75.2 °F - 66.2 °F 73% 29.90 in 10.0 mi SSE 16.1 mph 27.6 mph N/A   Scattered Clouds
9:50 AM 78.8 °F - 66.2 °F 65% 29.90 in 10.0 mi SSE 13.8 mph 27.6 mph N/A   Mostly Cloudy
10:50 AM 78.8 °F - 66.2 °F 65% 29.90 in 10.0 mi SSE 13.8 mph 27.6 mph N/A   Scattered Clouds
11:50 AM 82.4 °F 83.9 °F 64.4 °F 54% 29.92 in 10.0 mi SSE 13.8 mph 24.2 mph N/A   Scattered Clouds
12:50 PM 82.4 °F 83.4 °F 62.6 °F 51% 29.90 in 10.0 mi South 18.4 mph 25.3 mph N/A   Scattered Clouds
1:50 PM 82.4 °F 83.9 °F 64.4 °F 54% 29.88 in 10.0 mi SSE 11.5 mph 19.6 mph N/A   Scattered Clouds
2:50 PM 84.2 °F 85.6 °F 64.4 °F 51% 29.87 in 10.0 mi SSE 15.0 mph 24.2 mph N/A   Scattered Clouds
3:50 PM 84.2 °F 85.6 °F 64.4 °F 51% 29.83 in 10.0 mi SSE 10.4 mph 20.7 mph N/A   Mostly Cloudy
6:51 PM 84.2 °F 85.6 °F 64.4 °F 51% 29.79 in 10.0 mi ESE 15.0 mph 18.4 mph N/A   Mostly Cloudy
7:51 PM 82.4 °F 83.9 °F 64.4 °F 54% 29.80 in 10.0 mi SE 10.4 mph - N/A   Clear
9:15 PM 80.6 °F 82.3 °F 64.4 °F 58% 29.83 in 10.0 mi SSE 9.2 mph - N/A   Clear
9:35 PM 78.8 °F - 64.4 °F 61% 29.83 in 10.0 mi SSE 6.9 mph - N/A   Clear
9:55 PM 78.8 °F - 64.4 °F 61% 29.82 in 10.0 mi SSE 12.7 mph 16.1 mph N/A   Clear
10:15 PM 78.8 °F - 64.4 °F 61% 29.82 in 10.0 mi SSE 16.1 mph 25.3 mph N/A   Clear
10:35 PM 78.8 °F - 64.4 °F 61% 29.82 in 10.0 mi SSE 13.8 mph 23.0 mph N/A   Clear
10:55 PM 78.8 °F - 64.4 °F 61% 29.81 in 10.0 mi SSE 13.8 mph 25.3 mph N/A   Clear
11:15 PM 78.8 °F - 66.2 °F 65% 29.81 in 10.0 mi SSE 19.6 mph 26.5 mph N/A   Clear
11:35 PM 77.0 °F - 68.0 °F 74% 29.81 in 10.0 mi SSE 16.1 mph 27.6 mph N/A   Clear
11:55 PM 77.0 °F - 68.0 °F 74% 29.80 in 10.0 mi SSE 20.7 mph 29.9 mph N/A   Clear